Wind_Speed
17 17 17 17 18 20 21 22 23 24 25 26 27 28 28 28 28 28 28 27 26 24 22 21 22 23 23 22 22 21 21 21 20 24 27 27 25 24 22 20 18 16 16 15 15 15 14 15 14 12 11 10 8 7 6 4 3 4 3 7 2 14 14 14 18 17 16 15 15 14 11 10 10 11 12 11 7 8 13 13 11 11 10 12 16 18 19 17
19 19 19 19 19 20 21 23 24 25 26 27 28 29 30 30 30 30 30 29 28 27 25 24 23 23 24 24 23 22 22 21 22 24 26 27 28 27 24 21 19 17 17 17 17 17 16 16 15 12 12 11 9 8 7 5 4 3 3 5 3 13 14 16 19 18 19 18 17 15 12 11 10 11 12 10 9 9 14 15 12 12 10 10 14 16 18 17
21 21 21 21 22 22 23 24 25 26 27 27 28 30 31 32 32 32 31 31 30 29 28 26 25 24 24 25 25 24 23 23 23 24 25 27 28 27 27 24 21 19 18 18 18 17 16 15 13 11 11 11 9 9 8 6 5 2 2 3 1 10 14 17 19 19 21 20 18 17 14 11 10 11 12 10 9 7 11 16 15 14 12 9 12 15 17 16
22 23 23 24 24 25 26 26 27 27 28 28 29 30 31 33 34 33 33 33 32 31 29 28 28 26 25 25 26 26 25 24 25 24 25 27 27 29 29 26 24 22 19 17 17 16 15 14 12 11 12 12 11 9 8 6 5 4 3 3 1 11 15 17 19 20 21 20 18 17 15 12 11 12 12 11 10 7 8 15 17 16 15 12 13 16 16 15
24 24 25 26 26 27 28 29 29 30 30 30 30 30 31 33 34 35 35 35 34 32 31 30 29 29 27 26 26 27 26 26 26 25 26 26 27 30 31 29 26 23 19 16 16 15 15 15 14 14 14 14 12 10 9 7 6 4 4 3 4 12 16 18 20 20 21 19 16 16 16 13 12 12 11 10 11 10 8 13 17 17 18 17 16 16 15 15
27 27 28 28 28 29 30 31 32 32 32 32 33 32 32 33 34 35 36 36 36 34 32 31 31 30 29 28 26 27 28 28 27 27 27 27 27 30 32 31 28 25 21 17 15 15 16 16 17 17 17 15 13 10 9 7 6 3 3 3 5 12 16 19 20 21 21 19 16 16 16 13 11 10 9 10 10 11 10 11 13 16 19 19 19 17 16 15
30 31 31 32 32 32 32 33 34 34 34 34 34 35 34 34 34 35 36 37 37 35 34 33 33 31 31 30 28 27 28 29 29 28 28 27 27 29 32 32 30 28 24 19 16 16 18 19 20 20 19 16 13 11 10 8 5 2 2 2 5 13 18 20 21 21 20 20 19 18 17 14 11 9 8 10 9 11 11 9 10 14 17 19 19 18 17 16
33 34 34 35 35 35 35 35 35 36 36 35 35 36 36 35 35 34 35 36 37 36 35 35 34 33 32 31 30 28 28 30 30 29 28 28 28 29 30 32 33 31 27 23 20 19 19 20 22 23 20 17 14 12 10 8 6 3 1 1 3 12 19 21 22 21 19 20 21 20 18 14 14 11 8 10 10 12 13 10 9 11 14 18 19 18 16 16
35 36 37 37 36 36 36 36 36 36 36 36 36 36 36 35 35 34 34 35 36 36 36 36 35 34 33 32 31 30 29 29 30 30 29 29 29 29 30 32 34 33 30 26 23 21 21 23 25 23 21 18 16 14 12 9 7 4 2 1 1 9 17 18 20 22 20 21 21 20 17 14 16 14 9 10 11 13 14 12 10 10 13 17 19 18 17 17
38 39 38 38 37 36 36 35 35 35 36 36 36 36 36 35 34 34 34 34 35 36 36 36 36 35 34 32 31 31 30 29 30 31 30 30 30 30 30 31 34 34 32 29 26 25 25 26 25 23 22 20 17 15 13 10 8 7 4 2 0 6 11 10 15 22 23 22 21 21 18 14 17 15 11 11 11 13 14 12 11 11 13 16 18 19 18 18
40 40 40 39 38 36 35 34 33 33 33 34 34 34 35 34 33 33 33 33 34 35 35 35 35 35 35 33 31 31 31 30 30 31 31 31 31 31 31 32 33 34 33 32 30 29 29 26 23 22 22 20 18 17 15 12 10 9 6 3 3 6 9 8 13 22 25 22 21 23 20 16 18 16 13 12 11 12 14 13 11 11 13 16 17 18 18 18
41 41 40 39 37 36 34 32 31 31 31 31 32 32 33 33 33 32 32 32 33 33 34 35 35 35 35 34 33 32 32 32 31 30 32 32 32 32 31 32 33 34 35 35 34 33 31 27 24 23 21 21 20 18 17 14 12 11 7 4 5 6 8 10 15 23 25 23 22 25 22 18 19 16 13 13 12 12 14 14 11 11 13 15 17 18 18 18
41 40 39 38 36 34 32 30 29 29 29 29 30 31 31 31 32 31 31 31 32 32 33 34 35 35 35 35 34 32 31 31 31 30 31 33 33 32 32 32 33 34 36 37 38 36 34 31 27 23 21 22 22 20 17 16 14 12 8 6 6 5 6 8 15 23 26 24 23 23 21 20 19 16 14 13 12 11 13 14 13 12 13 15 17 17 18 17
40 39 37 35 33 31 29 27 27 26 27 27 28 29 30 30 30 30 30 30 31 31 31 32 34 34 35 35 33 31 30 31 32 31 32 34 34 34 34 33 33 34 36 37 39 39 38 34 29 25 24 22 22 20 18 17 16 13 10 8 6 4 5 6 11 20 25 24 23 22 21 21 18 16 15 13 14 13 13 14 14 14 14 15 17 17 17 17
38 36 34 32 30 28 27 26 25 25 26 26 27 28 28 29 29 29 29 29 29 30 30 31 32 33 33 34 33 32 31 32 34 34 34 34 35 36 36 35 35 35 36 37 39 39 38 35 30 28 26 23 22 21 19 18 17 15 12 10 7 6 6 5 7 16 24 25 24 24 23 23 20 17 16 14 15 14 13 15 15 16 15 16 17 17 18 18
35 33 31 29 28 26 25 25 24 24 25 25 25 26 26 27 27 28 28 28 28 28 29 29 30 31 32 32 33 33 34 34 35 35 35 35 36 37 37 37 36 36 37 37 38 38 37 34 33 31 27 24 23 21 20 19 17 16 14 12 11 9 7 6 6 11 20 27 26 25 24 23 22 19 16 15 16 15 14 15 17 17 16 16 17 17 17 18
32 30 29 28 26 25 24 24 23 23 23 23 24 24 24 24 25 25 26 26 26 27 28 28 28 29 30 32 33 35 35 35 35 36 36 36 37 38 38 37 37 37 37 37 37 36 35 35 35 34 29 26 24 21 19 18 17 16 15 15 14 12 9 8 7 5 13 25 26 26 25 23 22 20 17 16 16 16 14 14 16 17 17 17 18 18 18 19
30 29 28 27 25 24 23 23 23 22 22 22 22 22 22 22 22 23 23 24 24 25 26 26 27 28 29 32 34 36 35 35 35 36 37 37 37 38 38 38 38 38 38 37 36 35 35 36 36 35 33 29 24 20 18 18 19 18 17 17 15 14 12 11 10 6 9 20 25 25 24 25 25 22 19 18 16 16 16 15 16 17 18 18 19 19 19 19
30 29 27 26 24 23 23 22 22 22 22 22 22 21 21 21 20 21 21 21 22 23 24 24 26 27 29 30 33 34 34 34 34 34 36 37 38 39 39 39 39 39 38 37 36 35 35 36 36 36 34 29 23 20 21 22 22 20 18 18 17 17 16 15 13 11 10 14 22 26 24 24 26 23 21 20 17 17 18 16 16 17 18 19 19 20 19 19
30 29 27 24 23 22 22 22 22 22 21 21 21 20 19 19 19 18 18 19 19 20 21 22 24 26 27 28 30 32 32 32 33 34 36 37 38 39 39 39 39 39 39 37 36 35 35 36 35 33 30 27 24 23 25 25 23 21 19 19 18 17 17 17 16 14 11 9 15 23 25 26 27 24 23 22 18 17 17 16 15 15 17 18 19 19 19 19
30 28 25 23 22 21 22 22 21 21 20 19 19 18 18 18 17 16 16 16 17 18 19 20 22 25 26 27 28 29 30 31 33 34 36 37 38 39 39 39 39 39 39 39 38 36 36 34 31 30 30 30 28 27 27 26 25 24 21 19 19 18 16 17 18 15 13 10 10 14 20 26 29 26 25 23 19 18 17 17 16 15 16 17 18 19 19 18
29 27 24 22 21 21 21 21 20 20 19 18 17 17 16 16 15 14 14 15 15 16 17 18 21 24 26 27 27 28 29 30 32 33 35 36 37 39 39 39 39 38 38 39 38 37 35 31 29 31 33 33 31 29 28 27 27 27 23 20 20 19 17 17 18 16 13 13 12 11 15 25 30 27 26 25 20 19 20 19 18 17 16 16 17 17 18 18
28 26 23 22 21 21 20 20 20 19 18 17 17 16 15 14 12 12 12 13 14 15 17 18 20 23 25 26 27 28 29 30 31 32 33 34 35 37 38 38 38 38 38 38 37 35 32 29 30 33 35 34 32 31 29 28 28 28 24 21 21 21 19 19 19 17 13 13 13 11 13 22 30 28 26 26 22 21 21 20 20 19 17 17 17 17 18 19
27 25 22 21 20 20 20 20 20 19 18 17 15 14 12 11 10 9 9 10 12 15 16 18 20 23 25 26 27 28 29 30 30 31 32 33 34 36 37 37 38 38 37 37 36 34 31 31 33 35 35 35 34 32 31 29 29 29 26 23 22 22 21 21 20 17 14 13 13 12 12 18 25 26 26 26 24 23 22 22 21 20 19 18 19 19 20 20
26 24 22 20 19 19 20 20 20 18 17 15 13 12 10 9 7 6 7 7 9 12 14 17 19 21 23 25 26 27 28 30 31 31 31 32 33 34 36 37 37 38 37 36 35 34 33 34 35 36 36 36 36 34 32 30 29 30 27 25 23 23 22 22 21 19 16 13 14 14 16 20 22 22 25 28 26 24 23 23 22 21 19 18 19 20 21 21
25 23 21 19 18 19 20 20 18 16 13 12 11 9 7 6 4 3 5 6 7 11 14 16 18 19 21 23 24 25 26 29 31 32 31 32 32 33 35 36 36 37 37 35 34 34 35 36 36 36 37 37 37 35 33 32 31 29 28 27 25 23 22 22 21 21 19 17 16 16 19 24 24 22 23 27 28 27 25 23 23 23 20 18 19 20 20 20
24 22 20 18 18 19 19 19 17 14 12 10 8 6 3 2 0 3 5 7 8 11 14 16 16 17 20 22 23 24 25 27 29 31 33 33 33 33 34 35 36 37 36 36 35 34 36 37 37 37 37 38 37 35 34 32 30 29 29 29 25 23 22 23 23 22 21 20 19 19 20 24 24 21 21 26 29 29 26 24 23 23 22 21 20 19 19 20
24 21 19 17 17 18 18 18 16 14 12 9 6 2 1 2 3 5 6 6 8 10 13 14 15 16 18 19 22 24 25 25 27 30 32 33 34 35 35 34 35 36 37 37 35 34 37 38 38 38 37 37 35 33 32 31 29 30 31 30 27 26 26 27 26 25 24 23 19 19 21 23 23 21 21 25 29 29 26 25 23 23 23 22 20 19 19 19
23 20 18 17 17 17 17 17 16 14 12 8 4 1 3 5 6 7 8 8 9 10 12 14 14 15 17 18 19 21 24 26 28 29 30 31 33 35 36 36 36 37 38 37 35 36 40 40 40 39 38 36 33 32 32 31 30 31 33 32 29 28 29 29 28 26 26 24 20 19 20 22 23 22 22 24 26 27 27 26 25 24 24 22 22 21 20 19
22 19 17 16 16 16 16 15 14 13 10 6 3 3 5 6 7 7 8 10 10 10 12 14 13 14 16 17 16 18 22 26 29 30 30 30 32 34 36 37 38 38 38 37 36 38 40 41 41 40 38 36 34 34 33 31 32 33 33 34 32 30 28 28 27 26 24 23 22 20 19 21 23 22 23 23 22 26 29 28 26 25 24 23 22 21 20 19
21 18 16 15 14 14 14 13 12 11 8 5 3 3 5 6 6 7 10 11 10 10 11 13 14 15 17 16 15 17 20 24 28 30 31 31 32 34 35 37 39 39 38 37 37 38 39 40 41 39 37 36 35 36 35 34 35 34 34 35 35 33 30 29 27 25 24 23 23 21 18 19 21 20 22 24 23 27 31 29 26 26 25 22 21 21 21 21
20 17 15 13 12 12 12 11 10 9 6 4 3 3 4 5 5 7 10 9 8 8 9 13 16 17 19 18 17 17 18 21 25 28 31 31 31 33 35 36 37 37 37 37 37 38 38 38 38 37 37 38 38 38 37 38 38 37 37 37 37 36 33 31 29 25 24 24 24 23 20 18 20 18 17 21 23 26 31 31 28 27 26 22 21 23 24 23
19 17 14 12 11 10 10 9 9 7 4 3 3 3 5 6 5 5 5 6 7 7 7 10 14 16 18 19 17 17 16 18 21 24 29 30 29 31 34 36 36 36 36 37 37 38 38 36 36 37 38 39 39 39 39 41 41 41 40 38 37 37 36 33 30 25 25 26 25 25 24 21 22 20 17 18 19 18 23 30 30 27 27 26 24 26 26 25
18 16 14 12 10 9 8 8 7 5 3 2 3 4 6 5 3 2 3 5 7 7 7 9 12 15 19 19 17 16 16 17 19 21 26 30 30 30 33 35 35 36 37 37 38 38 37 36 35 37 39 39 39 38 39 40 40 40 40 38 37 37 35 31 27 23 23 25 27 28 27 23 21 21 20 20 19 16 16 21 24 24 27 28 27 27 27 26
18 15 14 12 10 8 7 7 6 4 2 1 2 4 5 2 1 1 2 5 6 7 7 9 12 16 20 19 17 18 18 18 18 20 24 29 31 31 33 35 35 35 37 37 37 37 37 36 36 37 38 39 38 37 39 40 40 40 39 39 38 36 33 28 25 24 23 24 27 29 27 23 21 22 21 21 21 20 18 17 17 21 26 30 29 29 27 26
17 14 13 11 9 8 7 6 5 3 2 1 2 3 2 1 2 3 2 4 6 6 6 8 13 18 20 18 16 17 20 19 20 22 24 28 31 32 33 34 34 35 36 37 37 37 36 35 36 37 37 37 37 37 39 40 40 41 41 40 37 34 32 30 29 30 28 25 26 29 27 24 23 23 21 20 20 21 20 19 17 19 26 32 33 32 30 27
16 13 12 11 8 6 6 6 5 3 2 2 1 0 1 1 2 4 4 4 6 6 7 10 14 19 21 19 17 18 20 21 22 23 24 27 30 32 33 33 34 35 36 36 37 37 36 35 35 36 35 36 38 38 38 39 40 41 41 39 35 34 35 35 34 34 32 28 27 28 28 27 26 24 21 19 19 19 19 19 19 19 24 34 38 36 33 29
15 12 11 10 8 5 4 5 5 4 3 3 3 3 3 2 3 6 6 6 5 6 9 12 15 20 21 19 18 18 19 21 22 23 24 26 28 30 32 32 33 35 35 35 36 36 36 35 35 35 35 36 38 39 40 41 41 40 39 37 36 37 36 37 38 37 34 30 26 25 27 30 29 26 22 20 19 20 18 19 19 17 22 34 40 37 34 31
13 12 11 10 8 6 4 4 5 5 4 5 5 5 4 4 5 6 7 7 7 8 12 14 16 19 21 20 18 17 17 19 21 22 23 23 25 28 31 32 33 34 35 35 35 36 36 35 35 35 35 36 37 39 41 42 41 40 40 39 39 38 36 36 38 37 34 31 26 23 25 29 29 25 22 21 20 20 19 19 20 17 18 29 37 35 34 32
13 11 10 9 8 7 5 4 5 5 5 5 6 6 5 5 6 6 7 8 9 10 13 15 16 18 20 21 19 17 17 17 18 20 20 21 23 26 30 32 32 33 34 35 35 35 36 36 35 35 36 37 37 39 41 41 41 42 44 43 42 40 38 37 37 37 35 32 28 26 25 26 26 25 23 23 22 21 20 20 20 18 17 22 27 31 34 34
13 11 9 8 7 7 6 5 5 6 6 4 5 5 6 7 7 7 9 9 10 12 14 15 15 17 19 21 19 18 17 16 17 18 17 19 22 25 29 31 32 32 34 35 36 36 36 36 36 37 37 37 37 38 40 41 41 43 44 44 43 41 40 39 39 39 37 34 31 29 27 24 23 25 24 24 24 23 21 20 19 19 18 19 21 24 29 32
14 11 8 7 7 7 6 5 5 6 6 4 4 5 5 6 5 6 9 10 11 13 15 16 18 19 20 21 20 19 17 17 17 17 17 18 21 24 28 30 31 31 33 35 36 35 35 36 38 39 38 37 37 37 40 41 42 43 43 43 43 41 40 39 39 39 37 36 34 32 30 26 24 25 26 25 24 23 22 21 20 20 20 21 21 22 25 28
13 11 9 7 6 6 6 6 5 6 5 4 4 4 4 4 3 4 8 10 11 14 15 17 19 20 21 21 20 19 18 18 18 19 18 18 20 23 27 30 31 31 33 34 34 34 35 36 38 40 39 38 36 36 39 40 41 41 42 42 42 41 39 38 38 38 37 36 35 33 32 29 25 25 26 27 25 24 24 23 21 21 21 21 21 22 24 26
12 11 9 8 7 5 5 4 4 4 5 5 4 3 3 4 3 2 6 9 11 14 15 16 18 19 21 22 21 20 20 19 19 20 21 19 20 23 26 29 31 31 32 33 32 33 35 35 37 39 40 40 38 37 38 40 41 41 40 42 43 42 40 37 36 37 38 38 37 36 34 31 27 25 26 27 27 25 24 24 22 21 21 21 21 22 25 26
12 11 9 9 8 6 5 3 2 3 4 4 3 2 3 5 4 1 3 7 9 11 14 16 17 18 20 22 22 22 21 20 18 20 22 21 20 23 26 29 31 32 32 33 32 32 34 35 36 38 40 42 42 40 40 42 44 44 43 43 44 43 41 37 35 36 37 38 39 38 37 33 30 28 26 26 28 27 25 24 23 22 21 21 23 24 24 25
13 11 9 8 8 7 5 4 3 3 4 4 3 1 3 5 5 3 2 5 7 8 9 11 12 14 16 19 22 23 23 22 19 19 22 23 21 22 25 29 32 33 33 33 33 33 33 34 36 37 38 41 42 41 41 44 46 47 46 46 46 45 42 38 37 37 37 37 37 38 37 35 33 32 29 26 26 25 24 23 22 22 23 23 23 23 23 25
14 12 10 8 7 7 6 6 5 4 4 4 3 0 2 4 5 5 3 4 6 6 7 8 9 10 12 14 17 21 23 23 22 19 21 24 23 23 25 29 32 34 34 33 33 33 34 34 35 36 35 38 41 40 40 42 45 47 47 46 46 46 43 40 39 39 39 38 37 37 36 35 33 33 33 31 28 26 25 23 21 22 23 24 24 23 23 25
14 13 11 8 7 7 7 7 6 5 5 5 3 1 1 3 4 4 3 2 4 5 7 8 9 10 10 10 12 16 19 22 22 21 20 23 24 23 24 28 31 34 36 35 32 32 33 33 35 36 35 35 37 39 39 39 41 44 45 45 45 44 43 42 41 40 40 40 38 36 35 34 33 33 33 33 33 31 28 26 24 22 22 24 24 23 25 25
14 13 12 9 7 9 9 8 7 6 7 6 4 2 0 1 2 2 2 1 2 5 7 9 9 10 10 10 9 11 14 17 20 21 20 22 24 24 23 25 29 33 36 37 35 33 33 34 34 36 37 36 35 36 38 37 37 38 40 41 42 43 43 43 42 41 40 40 38 36 35 34 33 33 33 33 33 33 32 30 28 26 25 25 25 25 25 26
13 13 12 10 9 10 10 9 8 8 7 7 5 3 2 1 1 1 1 0 1 2 6 9 10 9 10 11 11 11 12 13 17 20 21 22 24 25 24 24 27 31 35 38 39 37 36 37 37 37 37 38 38 36 36 36 36 35 36 37 39 41 42 43 44 43 42 41 40 38 36 35 34 34 34 33 33 31 30 29 28 27 27 27 28 27 26 26
13 13 12 10 10 11 11 10 9 7 6 5 5 4 3 3 4 3 2 2 1 1 2 6 9 9 8 9 10 11 11 12 15 18 20 22 24 25 26 25 27 30 33 36 38 38 35 34 37 40 39 39 40 38 36 36 35 34 34 35 36 38 40 42 43 44 44 43 42 40 38 37 36 35 34 32 31 30 28 27 26 26 27 27 27 28 28 28
14 13 12 11 11 12 12 11 9 7 6 5 4 5 4 5 5 4 3 3 2 1 1 3 6 9 9 8 8 9 9 10 13 16 18 22 24 25 26 27 27 29 32 35 36 36 34 30 31 36 39 39 40 40 39 37 35 34 34 35 36 36 38 39 41 42 44 44 43 42 40 38 37 37 35 33 31 30 29 29 28 27 28 28 28 28 28 27
Wind_Direction
302 298 296 292 289 287 284 281 277 271 267 264 262 260 259 258 257 256 256 256 254 251 249 246 244 242 241 239 236 233 230 227 224 221 220 218 216 216 218 213 209 211 212 211 215 218 217 219 220 215 217 219 216 219 230 239 270 298 350 20 119 164 153 157 159 158 162 157 153 147 134 125 114 106 100 98 113 136 127 121 130 129 131 143 144 140 135 138
305 301 297 293 289 285 283 280 277 274 269 265 262 260 258 256 255 254 253 254 254 253 250 247 245 242 240 239 236 233 229 226 223 222 222 219 216 215 217 214 209 212 212 211 213 215 218 219 219 216 219 222 216 220 228 229 247 295 15 30 125 162 162 165 163 162 165 163 157 155 147 139 132 118 107 111 124 135 127 122 131 127 125 145 147 142 137 141
309 305 301 297 293 288 284 280 277 274 271 267 263 260 258 256 254 253 252 251 252 253 251 249 246 243 240 238 236 233 229 225 222 222 222 220 217 215 217 215 209 213 214 213 215 217 221 224 226 224 226 227 220 222 228 229 239 292 3 20 143 179 177 170 167 165 166 168 163 157 157 151 140 123 113 116 121 137 139 132 134 128 124 142 145 139 137 141
310 307 303 299 295 292 287 283 279 275 271 268 264 261 258 256 254 253 252 250 248 249 250 250 247 244 241 238 235 233 230 225 223 221 220 220 217 215 218 215 210 213 214 213 215 218 225 231 234 230 227 227 224 225 230 236 240 269 327 12 201 197 187 176 171 168 167 170 167 156 159 160 148 135 126 127 127 134 157 147 143 135 129 138 140 137 139 143
310 307 302 298 295 292 288 285 281 277 273 269 265 262 259 256 254 252 251 250 248 246 247 249 248 245 242 239 235 233 230 226 224 221 219 219 216 215 217 216 211 211 213 211 212 217 224 229 231 228 225 224 224 224 228 237 242 265 320 351 226 204 191 182 175 170 168 170 167 157 160 165 159 149 129 128 134 135 160 162 152 145 141 141 139 139 143 147
311 307 303 299 295 291 288 284 281 278 275 272 268 264 260 257 254 252 250 250 249 246 244 245 247 246 243 241 237 233 230 227 225 222 219 218 216 215 217 217 213 211 213 209 208 214 218 222 227 228 224 221 221 220 225 228 237 275 342 328 233 205 192 185 177 171 169 169 167 161 165 170 162 149 123 120 133 136 153 172 164 153 149 146 143 143 147 151
312 309 306 302 298 294 290 286 282 279 276 274 271 267 263 259 256 253 250 249 248 247 245 243 244 245 243 241 238 234 231 228 226 223 219 218 216 215 216 217 215 212 212 208 208 212 215 218 222 226 224 220 218 216 221 220 226 271 358 315 221 203 195 185 178 175 171 168 166 166 170 169 157 147 129 125 133 139 145 170 175 161 155 151 146 146 149 152
312 310 307 304 301 298 294 290 285 281 277 274 272 269 266 262 259 255 252 249 247 247 245 243 242 242 243 241 239 235 232 228 227 223 220 218 216 215 214 215 216 214 211 209 210 211 213 217 221 224 223 220 216 210 213 214 217 240 299 322 215 205 199 185 178 178 175 171 167 169 173 166 157 155 142 135 140 143 141 156 174 168 162 153 147 147 149 152
312 310 307 305 302 300 296 292 288 284 279 275 272 270 268 264 261 258 255 250 247 246 244 243 241 240 241 240 238 236 233 229 227 224 220 217 216 215 212 212 215 214 211 211 213 214 214 217 219 221 220 219 216 208 207 209 211 223 235 305 274 205 198 187 182 181 177 176 173 174 175 165 163 162 149 144 146 145 142 151 166 173 172 158 150 150 152 155
313 311 309 307 304 301 298 294 290 286 281 277 273 270 268 266 262 259 256 252 249 246 243 242 241 239 239 239 237 235 233 230 227 224 220 217 216 215 212 211 213 213 211 212 214 215 217 218 218 219 219 219 216 209 205 205 207 218 223 229 224 185 187 194 193 186 179 180 179 179 179 171 167 164 154 150 146 145 143 149 163 175 179 164 153 152 154 158
315 313 311 309 307 304 300 296 291 287 282 278 273 270 268 266 262 258 255 253 250 247 244 242 240 239 238 237 236 234 231 229 227 223 220 217 216 215 212 210 211 211 210 212 213 215 218 219 219 219 220 220 218 212 204 199 204 215 214 210 221 187 188 211 209 193 184 184 182 179 180 177 170 165 161 155 148 148 144 147 161 174 181 169 156 154 156 160
316 314 313 311 309 306 302 298 293 287 281 276 272 269 266 264 261 258 254 252 250 247 244 241 239 237 236 235 234 232 229 228 226 222 220 217 216 215 213 211 210 209 208 210 213 216 218 218 218 219 218 219 219 214 205 199 201 211 207 203 223 204 192 206 209 196 187 188 184 178 178 174 171 169 165 159 151 150 146 146 159 173 180 170 158 156 157 160
317 316 314 313 311 308 304 299 293 287 281 276 271 268 264 261 259 256 252 249 247 246 242 240 238 236 235 234 233 231 228 227 225 222 219 217 216 214 214 212 210 209 208 209 212 214 216 216 215 216 216 217 219 215 207 201 202 207 202 197 211 202 176 188 201 195 191 191 182 176 177 173 173 173 165 158 152 149 144 146 157 170 179 170 158 156 155 158
319 318 316 315 313 310 306 301 296 290 284 278 273 268 265 261 258 255 251 247 245 243 241 237 236 234 233 233 231 229 225 223 222 219 217 216 214 213 213 212 210 210 210 211 213 213 214 214 213 215 216 216 218 216 208 203 204 204 201 198 202 199 174 178 200 196 192 192 182 174 177 175 176 175 167 160 155 151 144 148 158 168 178 171 157 154 153 155
322 321 320 318 316 313 309 304 299 293 287 282 277 272 268 264 260 257 253 248 243 241 238 235 233 232 232 231 229 226 222 219 218 217 215 213 212 212 211 211 209 209 210 211 214 215 216 215 213 216 216 215 218 215 208 204 204 203 203 205 206 200 188 179 202 201 193 190 184 179 179 179 178 176 172 168 161 155 149 153 162 168 175 171 157 152 151 152
325 324 323 320 317 314 309 305 301 296 291 287 282 277 273 269 265 261 256 251 245 241 237 232 230 229 228 228 226 224 222 219 218 216 214 212 211 211 211 210 209 209 210 212 213 214 216 216 216 218 217 216 217 214 208 205 205 204 205 210 215 211 204 193 200 214 201 190 184 181 182 183 180 177 177 174 165 158 155 159 166 170 175 171 158 151 150 150
328 327 324 321 317 312 308 304 301 297 293 289 286 282 278 273 269 265 260 255 249 243 239 232 227 224 224 224 223 222 221 220 218 216 213 212 211 211 211 210 210 210 210 211 213 213 213 214 217 217 217 218 218 215 210 205 205 207 208 211 215 214 213 204 195 214 200 187 182 181 183 184 182 179 179 176 168 161 160 165 170 173 174 170 160 153 152 152
330 328 324 320 316 312 308 304 301 298 295 292 289 286 282 277 272 268 263 258 252 246 240 234 226 222 220 220 221 221 220 219 218 217 214 211 210 209 209 209 210 211 211 212 212 212 211 212 214 215 215 217 217 214 208 204 204 206 209 212 213 214 214 205 191 174 178 185 187 185 184 184 182 180 179 177 171 166 165 169 176 177 173 170 164 158 156 157
330 327 323 320 317 314 310 307 304 302 299 297 294 291 286 281 275 270 265 259 253 246 240 234 226 221 219 219 221 221 220 219 218 217 215 211 209 209 209 209 210 211 211 212 212 211 211 211 212 213 213 215 215 211 207 205 205 202 206 211 210 210 210 205 194 178 175 189 192 190 188 187 184 180 180 180 176 173 170 172 179 179 173 170 168 163 160 161
330 327 323 321 319 316 312 310 309 307 305 303 299 295 290 283 277 271 265 258 252 246 240 233 226 220 217 216 218 219 219 218 216 216 215 212 210 209 209 210 210 211 211 211 212 212 212 211 211 211 212 214 212 210 209 207 204 201 203 209 208 207 208 207 202 190 184 190 192 192 193 191 187 180 180 183 181 179 175 172 180 184 177 172 170 167 164 163
330 327 324 323 321 318 315 314 313 312 309 306 302 296 290 284 278 271 264 256 248 241 236 231 225 219 214 212 214 215 215 215 214 214 214 213 211 209 209 210 211 212 212 211 211 211 212 211 208 208 209 211 209 208 210 207 202 201 202 207 209 208 206 207 208 200 192 192 190 198 203 197 189 180 179 184 182 179 178 174 179 189 186 176 170 168 164 162
330 328 326 324 323 321 319 318 317 316 313 309 303 297 291 285 279 271 261 251 242 234 229 225 221 218 213 210 210 211 211 211 211 212 213 214 213 210 209 209 209 211 213 213 211 210 210 208 205 207 209 209 208 207 208 205 201 202 203 206 208 209 208 210 212 207 198 198 193 201 215 201 190 180 178 184 183 178 181 178 180 189 193 181 169 164 160 160
331 329 327 326 326 324 324 323 321 319 316 311 306 300 295 289 281 269 256 244 235 227 221 217 216 214 211 208 206 206 206 206 206 208 211 212 212 212 210 208 208 208 211 213 213 210 208 204 204 208 209 209 209 207 207 204 200 202 204 205 208 209 208 212 215 210 205 206 198 198 211 200 189 183 182 185 183 180 182 183 183 188 191 183 171 163 159 161
332 330 329 329 329 328 328 327 324 322 319 314 309 305 302 295 286 271 250 234 227 222 217 213 211 209 207 205 204 203 202 201 201 204 207 209 211 211 210 208 207 207 209 211 212 209 205 203 206 209 209 209 208 206 205 202 199 201 203 204 209 211 210 211 212 209 207 208 198 194 201 198 191 186 187 189 185 182 184 185 185 190 193 184 174 168 165 166
333 332 331 332 332 332 333 332 329 328 324 319 315 313 310 303 292 267 236 217 218 217 212 208 206 204 204 203 203 203 202 199 198 199 202 206 208 209 208 207 206 206 207 209 209 208 204 204 206 209 210 210 209 206 204 201 197 200 204 206 209 213 214 214 214 213 212 208 197 192 192 196 201 196 191 191 188 186 188 185 183 191 197 188 178 174 171 170
335 333 334 335 335 336 337 336 335 334 330 325 319 316 313 307 294 249 208 189 196 202 199 199 200 200 201 201 200 200 201 200 197 196 197 201 204 206 206 205 205 205 206 206 206 205 205 206 207 208 210 212 210 206 203 201 196 197 205 209 210 213 217 220 221 219 219 216 205 199 188 191 207 215 203 194 191 190 190 186 184 188 193 190 186 181 176 174
335 334 336 337 338 340 341 341 341 342 338 330 319 311 313 321 224 188 178 169 175 185 191 192 191 193 198 200 197 194 197 199 198 197 196 197 199 203 204 203 204 204 205 204 203 202 205 207 207 209 211 213 212 208 206 202 197 197 204 210 210 211 215 220 221 218 220 219 211 207 199 197 209 218 212 203 196 192 189 186 184 185 189 190 191 188 181 178
336 335 336 338 341 344 345 347 349 348 344 333 317 311 63 96 126 144 143 143 159 174 181 183 183 188 195 200 198 194 192 193 195 198 199 197 196 198 200 201 202 203 204 203 199 199 204 207 207 208 211 214 213 210 209 203 197 200 206 210 211 212 214 216 216 214 215 218 214 210 210 211 213 212 213 210 202 194 190 187 184 183 189 192 191 193 189 184
337 336 336 338 344 348 350 354 354 351 347 338 333 72 103 101 111 120 121 128 148 162 164 171 179 184 190 196 197 194 192 190 192 194 198 200 199 198 197 197 201 203 203 202 198 198 203 205 206 208 210 211 210 210 211 204 199 204 208 209 211 215 218 219 217 213 212 216 216 213 215 217 217 214 213 214 207 199 193 187 184 182 188 194 193 195 195 189
338 336 336 340 347 352 356 360 358 355 353 352 20 103 111 108 110 118 128 132 140 153 159 167 177 182 183 188 191 193 194 194 193 192 194 197 200 200 199 197 199 202 203 201 199 202 205 205 206 208 209 209 208 208 209 205 203 207 209 210 211 214 218 222 221 216 213 216 215 213 213 213 216 218 216 215 214 209 200 191 186 183 187 194 194 197 199 194
338 335 337 342 348 355 2 4 4 3 2 7 52 104 112 115 118 128 137 137 137 151 165 164 168 177 178 178 184 193 197 196 194 193 192 193 197 200 200 200 200 201 202 200 200 205 207 207 208 208 207 207 207 207 206 204 205 206 208 210 212 214 217 220 222 218 213 215 215 212 207 204 210 219 217 215 217 214 206 195 188 186 188 193 193 196 203 200
338 333 335 343 349 358 7 11 13 11 8 20 55 76 88 106 123 137 144 145 139 149 169 167 167 174 174 173 180 188 193 194 194 195 192 190 195 199 198 201 202 201 200 200 201 206 209 209 208 206 206 208 208 207 207 207 205 204 206 209 212 214 216 218 220 217 212 213 214 211 206 203 208 212 211 213 217 219 211 199 191 188 186 190 193 195 204 205
338 332 332 341 349 358 10 19 22 14 5 29 54 59 72 96 125 144 151 155 151 151 168 178 179 176 171 172 177 179 184 189 190 194 194 190 192 198 199 200 202 200 199 199 202 206 208 208 207 206 206 209 210 209 211 212 208 207 209 210 211 214 216 217 218 218 215 215 214 211 207 206 209 209 208 214 220 224 214 201 196 192 185 187 195 197 202 206
337 330 328 337 348 356 7 23 30 14 355 41 59 61 77 96 121 151 176 182 177 172 172 182 186 179 173 174 174 173 178 185 185 189 195 192 190 195 200 200 200 199 197 198 201 205 207 206 205 207 207 209 211 211 214 216 213 211 211 210 212 215 217 218 219 221 222 219 217 214 209 207 210 211 214 219 222 225 217 205 203 202 192 189 195 197 200 204
335 329 325 331 343 352 3 19 29 16 339 15 53 65 84 86 351 319 197 193 194 192 187 188 186 178 174 170 170 174 178 180 183 184 191 194 191 193 198 199 197 197 196 197 200 203 205 204 203 206 208 208 209 211 214 215 213 212 213 214 214 215 215 216 216 220 225 224 222 220 214 210 212 215 218 222 224 225 224 220 217 212 201 195 195 196 198 203
332 328 322 325 336 347 2 13 20 13 330 327 35 64 84 27 320 299 241 200 205 206 196 192 187 178 169 162 165 177 179 178 182 184 187 192 193 193 197 198 196 195 196 196 198 201 203 203 203 204 206 208 207 208 213 216 215 215 217 218 215 212 212 212 212 216 219 219 221 221 216 213 215 218 221 225 227 226 224 226 230 224 209 200 197 197 196 199
331 326 318 320 327 338 358 9 5 349 310 299 310 308 310 338 305 287 268 223 217 209 184 179 178 171 163 160 166 175 179 181 183 185 187 191 193 194 195 195 194 194 195 195 197 199 200 201 203 203 203 206 207 207 210 216 217 218 220 219 214 210 209 210 211 216 218 216 218 219 215 215 216 218 222 226 229 227 223 224 230 233 221 206 199 196 195 196
330 325 314 312 315 322 348 360 350 333 306 287 271 266 282 295 292 287 269 233 217 199 176 167 167 165 161 163 170 175 180 185 185 187 189 191 194 195 194 194 193 193 194 194 196 197 197 198 201 201 201 203 207 207 209 213 215 217 220 219 217 215 212 210 211 215 216 214 217 218 216 217 218 216 218 224 225 223 222 220 222 230 229 213 201 197 197 198
328 321 308 301 301 307 327 344 340 329 309 292 279 267 266 266 271 280 266 234 211 189 173 166 167 168 166 169 175 180 185 187 189 191 191 193 196 196 193 192 192 192 193 193 194 195 195 196 197 198 199 201 205 208 210 213 214 213 214 216 220 221 217 214 215 217 217 216 216 216 215 218 219 215 215 221 222 219 216 214 213 214 218 209 202 201 202 201
326 317 304 297 298 302 311 329 335 320 303 295 285 273 269 266 259 260 254 236 215 194 179 177 179 175 172 176 182 189 193 191 191 193 193 195 199 197 193 192 191 192 192 191 192 193 194 194 193 194 198 200 203 207 209 213 213 212 212 215 219 221 219 217 218 219 220 219 216 215 214 217 219 215 215 220 222 219 212 208 205 202 201 202 204 209 208 203
327 318 304 298 299 300 308 324 322 302 296 302 301 298 295 281 260 242 240 239 226 205 191 188 188 183 181 184 189 195 199 197 193 194 195 197 199 197 195 193 191 192 191 190 190 191 193 193 190 191 196 198 201 205 206 208 211 213 216 218 220 222 221 220 220 221 221 219 217 216 215 217 219 217 216 219 220 218 211 204 200 196 196 200 206 212 210 205
329 319 301 291 291 297 306 310 297 288 296 313 321 320 309 289 263 229 226 232 225 211 201 195 193 192 189 191 196 200 203 204 201 201 201 200 199 198 196 195 194 193 191 190 190 191 192 191 190 191 194 195 198 203 204 205 207 210 215 219 222 225 225 223 222 222 222 220 218 217 216 217 220 219 215 215 216 214 211 206 202 198 198 200 201 204 206 207
328 315 293 275 275 290 296 291 288 290 301 320 326 319 316 320 302 224 215 219 218 211 206 203 201 200 197 197 203 207 208 211 212 212 210 205 202 199 196 197 197 195 193 191 191 192 191 191 191 192 193 194 196 201 203 204 206 208 212 216 219 224 226 225 223 223 224 223 220 218 218 219 222 222 219 217 215 213 213 211 209 207 206 205 205 205 206 208
324 310 288 266 261 272 277 277 289 298 307 327 327 314 342 8 359 235 207 212 216 214 213 213 213 212 211 210 211 212 213 216 218 218 216 213 207 202 199 198 198 198 196 193 193 193 191 191 193 193 194 195 196 200 204 205 206 208 212 216 219 222 224 225 224 224 224 224 221 220 219 219 223 225 225 224 221 218 218 217 215 217 216 212 212 213 212 209
321 311 291 267 255 253 252 257 279 285 298 317 312 311 28 37 32 53 193 208 217 218 219 221 221 220 222 222 221 220 220 222 223 220 217 218 215 208 203 202 200 199 199 197 195 195 193 193 194 195 197 199 199 201 204 207 208 209 212 216 219 222 222 223 225 226 226 224 222 220 218 220 223 224 225 227 226 225 225 222 219 222 221 215 215 217 215 212
320 312 299 272 252 245 241 240 245 246 253 265 271 319 42 48 51 60 138 193 206 210 212 216 218 218 222 225 225 225 225 225 226 222 218 221 223 215 208 206 203 202 201 200 199 197 196 195 194 196 200 203 204 205 206 209 210 211 213 216 219 221 221 222 225 228 229 228 227 224 221 222 226 227 225 226 225 224 227 226 222 221 220 218 218 219 215 212
321 314 306 282 253 243 237 229 223 220 227 241 252 343 41 43 53 61 90 165 183 189 194 202 209 212 217 222 224 225 226 226 228 227 224 225 227 221 213 209 207 205 205 205 203 200 198 197 196 198 202 204 207 211 212 212 213 213 215 217 221 223 222 221 224 228 230 231 231 230 227 225 228 231 230 229 228 226 228 228 225 223 222 222 225 224 219 215
319 313 304 287 254 239 235 225 214 207 212 226 236 221 48 37 49 59 70 131 166 175 183 194 203 208 209 215 220 223 226 228 230 232 230 227 226 225 219 213 210 209 209 210 209 204 203 202 199 198 203 205 206 212 217 217 216 216 218 220 223 225 224 222 223 227 230 232 232 231 229 228 230 232 232 233 234 232 232 233 232 230 230 231 233 231 226 221
315 309 301 288 256 236 235 230 222 214 208 208 214 210 130 25 39 65 64 70 155 180 189 192 199 204 203 202 208 214 219 225 229 231 230 224 222 223 224 220 215 213 212 213 213 209 206 209 208 203 203 205 206 209 215 219 221 221 221 222 223 226 226 223 223 224 227 230 230 229 229 229 230 230 231 232 235 237 238 239 239 240 240 240 240 236 230 226
309 304 299 286 256 237 235 236 232 227 219 208 200 189 174 234 263 214 186 9 74 180 203 205 207 209 202 197 199 204 210 217 223 226 225 220 218 221 226 227 221 217 214 214 216 215 209 210 213 211 208 208 209 211 214 217 221 224 225 224 224 224 226 225 224 225 226 228 229 229 230 231 231 232 232 232 235 238 241 241 241 242 242 243 242 238 234 231
305 300 296 281 256 239 234 236 236 235 232 220 203 186 174 199 223 227 231 247 338 39 222 222 225 225 216 205 203 204 209 212 214 217 216 212 212 217 224 227 224 220 217 216 220 223 221 216 213 211 212 212 210 212 215 217 219 223 226 227 226 225 225 226 226 227 228 230 231 233 234 235 234 233 234 235 236 238 240 241 239 239 239 241 241 237 233 231
304 298 293 279 258 243 234 231 231 234 234 223 213 207 198 202 216 225 236 241 242 295 291 249 243 238 232 225 214 209 210 210 210 212 210 208 209 213 219 223 224 223 220 219 222 227 229 229 222 214 214 216 212 209 212 216 219 222 225 226 226 227 227 227 227 228 230 231 233 235 236 236 235 234 234 234 235 236 238 240 239 237 237 238 239 237 235 232
Height
5852 5851 5850 5849 5848 5847 5847 5846 5845 5845 5844 5844 5844 5844 5844 5844 5844 5844 5845 5845 5846 5848 5848 5849 5849 5850 5851 5852 5853 5854 5856 5857 5858 5859 5860 5862 5864 5866 5867 5869 5871 5872 5874 5875 5876 5877 5877 5877 5878 5880 5880 5881 5882 5883 5883 5884 5885 5886 5885 5884 5884 5886 5887 5889 5891 5892 5894 5894 5895 5896 5897 5898 5899 5899 5900 5900 5902 5902 5901 5902 5904 5904 5904 5905 5906 5907 5908 5911
5850 5848 5847 5846 5845 5845 5844 5843 5843 5842 5842 5841 5841 5841 5841 5841 5841 5841 5842 5842 5843 5845 5846 5847 5847 5848 5849 5850 5851 5852 5854 5855 5857 5857 5858 5860 5862 5864 5866 5868 5870 5871 5872 5874 5874 5875 5876 5876 5877 5879 5880 5881 5882 5883 5883 5884 5885 5885 5884 5885 5886 5887 5887 5888 5890 5891 5892 5894 5895 5896 5898 5898 5898 5899 5900 5901 5902 5902 5901 5902 5904 5905 5905 5907 5907 5908 5909 5911
5848 5846 5845 5844 5843 5842 5841 5840 5839 5839 5839 5839 5838 5838 5838 5838 5838 5838 5838 5839 5840 5841 5843 5844 5845 5846 5846 5847 5849 5850 5852 5853 5854 5855 5857 5858 5860 5863 5864 5866 5869 5870 5871 5873 5874 5875 5875 5876 5878 5879 5879 5880 5881 5882 5883 5884 5885 5885 5884 5886 5887 5887 5888 5889 5890 5891 5892 5893 5895 5896 5898 5898 5898 5899 5900 5901 5902 5903 5902 5902 5904 5905 5906 5907 5908 5909 5910 5912
5845 5844 5843 5841 5840 5839 5838 5837 5836 5835 5835 5835 5835 5835 5834 5834 5834 5835 5835 5836 5837 5838 5840 5841 5842 5843 5844 5845 5846 5848 5849 5851 5852 5853 5855 5856 5859 5861 5862 5864 5867 5868 5870 5872 5873 5874 5875 5876 5877 5878 5879 5879 5881 5882 5882 5883 5884 5884 5885 5887 5888 5887 5888 5889 5891 5891 5892 5894 5895 5896 5898 5898 5899 5899 5899 5900 5901 5903 5904 5903 5904 5905 5906 5908 5909 5910 5911 5913
5842 5841 5840 5838 5837 5836 5834 5833 5832 5831 5830 5830 5831 5831 5831 5830 5830 5831 5831 5832 5833 5835 5837 5838 5838 5840 5842 5843 5844 5845 5847 5848 5850 5851 5852 5854 5857 5859 5860 5862 5865 5868 5869 5871 5873 5874 5874 5875 5876 5877 5877 5878 5880 5881 5882 5882 5883 5884 5885 5887 5887 5887 5888 5889 5890 5892 5893 5895 5896 5897 5898 5899 5899 5900 5899 5900 5901 5902 5904 5905 5905 5905 5905 5907 5909 5910 5912 5914
5839 5838 5836 5835 5833 5832 5831 5829 5828 5827 5827 5826 5826 5826 5827 5826 5826 5827 5827 5828 5829 5831 5833 5834 5835 5837 5838 5840 5842 5843 5844 5846 5847 5849 5850 5852 5854 5856 5858 5860 5864 5866 5868 5870 5872 5872 5873 5874 5874 5875 5876 5878 5879 5881 5881 5882 5883 5884 5885 5887 5886 5886 5888 5889 5891 5892 5893 5894 5896 5898 5899 5899 5900 5901 5900 5900 5901 5903 5905 5906 5906 5906 5906 5907 5908 5910 5912 5914
5836 5834 5833 5831 5829 5828 5827 5825 5824 5823 5823 5822 5821 5821 5822 5822 5822 5822 5823 5824 5825 5827 5829 5831 5832 5833 5835 5837 5839 5841 5842 5843 5845 5847 5849 5850 5852 5854 5856 5859 5862 5865 5867 5870 5871 5871 5871 5872 5872 5873 5875 5877 5879 5880 5881 5881 5882 5884 5885 5886 5885 5886 5888 5888 5890 5892 5893 5894 5895 5897 5898 5899 5901 5902 5902 5901 5902 5903 5905 5907 5908 5907 5907 5907 5909 5911 5912 5914
5832 5831 5829 5827 5825 5824 5822 5821 5820 5819 5818 5818 5817 5816 5816 5817 5818 5818 5819 5820 5821 5823 5825 5826 5828 5830 5831 5833 5836 5838 5839 5840 5842 5844 5847 5848 5850 5852 5854 5857 5860 5862 5865 5868 5869 5869 5870 5870 5870 5871 5874 5876 5878 5879 5880 5881 5882 5884 5885 5885 5885 5886 5887 5888 5890 5892 5894 5895 5896 5897 5898 5899 5901 5902 5903 5903 5903 5904 5905 5907 5909 5909 5909 5908 5910 5911 5913 5915
5829 5827 5824 5823 5821 5819 5817 5816 5815 5814 5813 5813 5813 5812 5812 5812 5813 5814 5815 5816 5817 5818 5820 5822 5824 5826 5828 5830 5832 5834 5836 5838 5840 5842 5844 5846 5848 5850 5852 5854 5857 5860 5863 5865 5867 5868 5868 5868 5868 5870 5873 5875 5877 5878 5879 5881 5882 5884 5885 5886 5886 5886 5887 5889 5890 5892 5893 5894 5896 5897 5898 5900 5901 5902 5903 5904 5904 5904 5905 5907 5909 5910 5910 5910 5910 5912 5914 5916
5824 5822 5820 5818 5816 5814 5812 5811 5810 5808 5808 5807 5807 5807 5807 5807 5808 5809 5810 5811 5812 5814 5816 5818 5820 5822 5824 5826 5828 5830 5833 5836 5837 5839 5842 5844 5845 5847 5850 5852 5854 5857 5861 5863 5865 5865 5865 5865 5867 5870 5872 5874 5876 5878 5879 5881 5883 5884 5886 5886 5886 5887 5888 5890 5891 5892 5893 5894 5896 5897 5898 5900 5901 5902 5903 5904 5905 5905 5905 5907 5909 5911 5911 5911 5911 5913 5915 5916
5820 5817 5815 5812 5811 5809 5807 5806 5805 5803 5802 5802 5802 5802 5802 5802 5803 5804 5805 5806 5808 5809 5811 5813 5816 5818 5820 5823 5825 5826 5830 5832 5834 5837 5839 5841 5843 5845 5847 5849 5852 5855 5858 5860 5861 5862 5862 5865 5867 5869 5871 5874 5875 5877 5878 5881 5882 5884 5885 5886 5887 5887 5887 5888 5890 5891 5893 5894 5896 5897 5898 5900 5901 5903 5903 5904 5905 5905 5905 5907 5910 5911 5912 5912 5912 5913 5915 5917
5815 5813 5810 5808 5806 5804 5802 5801 5799 5798 5797 5797 5797 5796 5797 5797 5798 5799 5800 5802 5803 5805 5807 5809 5811 5814 5816 5819 5820 5823 5826 5829 5831 5834 5836 5838 5841 5843 5845 5847 5849 5852 5854 5856 5858 5859 5861 5864 5866 5868 5870 5873 5874 5875 5878 5880 5882 5882 5884 5886 5886 5886 5887 5887 5888 5890 5892 5893 5895 5897 5898 5899 5901 5903 5903 5904 5905 5906 5906 5907 5910 5912 5914 5913 5913 5914 5916 5917
5811 5808 5806 5803 5801 5799 5797 5796 5795 5794 5793 5792 5792 5792 5792 5792 5792 5793 5795 5796 5798 5800 5802 5804 5806 5809 5812 5814 5816 5820 5823 5826 5828 5831 5833 5836 5838 5840 5843 5844 5847 5849 5851 5852 5854 5857 5860 5862 5865 5867 5869 5870 5872 5874 5877 5880 5881 5882 5883 5885 5886 5886 5887 5887 5887 5889 5891 5892 5895 5897 5898 5899 5901 5903 5903 5904 5905 5906 5906 5907 5910 5913 5915 5914 5914 5915 5916 5918
5807 5804 5802 5799 5797 5795 5793 5792 5790 5790 5789 5788 5788 5787 5787 5787 5788 5789 5790 5791 5793 5795 5797 5799 5802 5805 5807 5810 5813 5816 5819 5822 5824 5827 5829 5832 5835 5837 5839 5842 5844 5846 5848 5850 5852 5855 5857 5860 5864 5866 5867 5869 5871 5874 5876 5879 5880 5881 5883 5884 5886 5886 5887 5887 5887 5888 5890 5892 5894 5896 5897 5899 5901 5902 5903 5904 5905 5906 5907 5908 5910 5913 5915 5915 5914 5915 5916 5918
5804 5801 5798 5796 5793 5791 5789 5788 5787 5786 5785 5784 5784 5783 5783 5783 5784 5784 5785 5787 5788 5790 5792 5795 5797 5800 5803 5806 5809 5812 5815 5817 5819 5822 5825 5828 5831 5833 5836 5838 5841 5843 5846 5848 5850 5854 5856 5860 5864 5864 5866 5868 5870 5873 5876 5878 5879 5881 5883 5884 5885 5886 5887 5887 5887 5887 5889 5891 5893 5895 5896 5898 5900 5902 5903 5904 5905 5906 5907 5908 5910 5913 5915 5915 5915 5916 5917 5918
5801 5798 5795 5792 5790 5788 5786 5785 5784 5783 5782 5781 5780 5780 5780 5780 5780 5781 5781 5782 5784 5786 5788 5790 5793 5796 5799 5802 5805 5807 5810 5812 5815 5818 5822 5824 5827 5830 5832 5835 5838 5840 5843 5845 5848 5852 5856 5860 5862 5862 5865 5868 5869 5872 5874 5877 5879 5880 5882 5884 5885 5886 5887 5887 5887 5887 5887 5890 5892 5894 5896 5898 5900 5902 5903 5905 5906 5906 5907 5908 5910 5913 5914 5915 5915 5916 5917 5919
5798 5795 5792 5790 5787 5785 5784 5782 5781 5780 5779 5778 5777 5777 5777 5777 5777 5777 5778 5779 5780 5782 5784 5786 5789 5792 5795 5797 5800 5802 5805 5809 5812 5815 5818 5821 5824 5827 5830 5833 5835 5838 5840 5843 5846 5850 5854 5857 5859 5862 5865 5867 5868 5871 5874 5876 5878 5880 5882 5883 5884 5886 5887 5887 5887 5887 5887 5890 5892 5893 5896 5898 5900 5902 5903 5904 5906 5906 5908 5909 5911 5912 5914 5915 5916 5916 5918 5919
5795 5793 5790 5787 5785 5783 5781 5779 5778 5777 5776 5775 5774 5774 5774 5773 5774 5774 5774 5776 5777 5779 5781 5783 5785 5788 5790 5792 5795 5798 5802 5806 5809 5812 5815 5818 5821 5823 5826 5829 5832 5835 5838 5841 5844 5848 5851 5854 5856 5860 5863 5866 5868 5871 5874 5875 5876 5878 5880 5882 5883 5885 5886 5887 5887 5887 5888 5890 5892 5893 5895 5897 5899 5901 5902 5904 5905 5906 5908 5909 5911 5912 5914 5916 5916 5917 5918 5919
5793 5790 5787 5785 5783 5781 5779 5777 5776 5775 5773 5772 5772 5771 5771 5771 5771 5771 5771 5773 5774 5776 5778 5780 5782 5784 5787 5789 5792 5796 5800 5803 5807 5810 5813 5815 5818 5821 5824 5827 5830 5833 5837 5840 5843 5846 5848 5851 5854 5858 5862 5866 5869 5871 5871 5872 5873 5876 5879 5881 5882 5883 5884 5886 5887 5888 5888 5889 5890 5893 5895 5897 5899 5900 5902 5903 5905 5906 5907 5909 5911 5912 5914 5915 5916 5917 5918 5919
5791 5788 5785 5783 5781 5779 5777 5775 5774 5772 5771 5770 5769 5769 5768 5768 5768 5768 5769 5770 5771 5773 5775 5777 5779 5782 5784 5787 5790 5793 5797 5801 5804 5807 5809 5812 5815 5818 5821 5824 5828 5831 5835 5838 5841 5844 5846 5849 5853 5858 5863 5866 5867 5868 5868 5869 5873 5875 5877 5880 5881 5882 5883 5885 5887 5888 5889 5889 5890 5892 5894 5896 5898 5899 5901 5903 5904 5906 5907 5909 5911 5913 5914 5915 5916 5917 5918 5919
5788 5785 5783 5781 5779 5777 5775 5773 5771 5770 5769 5768 5767 5766 5765 5765 5765 5765 5766 5767 5768 5770 5772 5774 5777 5779 5781 5784 5786 5790 5794 5797 5800 5803 5806 5809 5812 5816 5819 5822 5826 5829 5833 5835 5838 5841 5844 5848 5853 5857 5860 5862 5864 5865 5866 5868 5872 5874 5876 5879 5880 5881 5883 5884 5886 5888 5889 5890 5890 5892 5893 5894 5896 5898 5900 5902 5904 5905 5908 5909 5911 5913 5914 5915 5916 5917 5917 5919
5786 5783 5781 5779 5777 5775 5773 5771 5770 5768 5767 5766 5765 5764 5763 5762 5763 5763 5764 5765 5766 5767 5769 5772 5774 5776 5779 5781 5784 5787 5791 5794 5797 5800 5804 5807 5810 5813 5816 5820 5824 5828 5831 5833 5836 5839 5843 5848 5852 5854 5855 5858 5860 5863 5864 5867 5871 5873 5875 5877 5879 5881 5882 5883 5885 5887 5888 5889 5890 5891 5892 5893 5895 5897 5899 5902 5903 5905 5907 5909 5910 5912 5913 5914 5915 5917 5918 5919
5784 5782 5779 5777 5775 5773 5772 5770 5768 5766 5765 5764 5762 5761 5761 5760 5760 5761 5761 5762 5763 5765 5767 5769 5771 5774 5776 5779 5781 5784 5787 5790 5794 5798 5801 5805 5808 5811 5815 5818 5822 5825 5828 5831 5835 5839 5844 5847 5849 5849 5852 5855 5858 5861 5863 5865 5869 5872 5874 5876 5878 5879 5881 5883 5884 5885 5887 5888 5889 5890 5891 5891 5894 5896 5898 5901 5902 5904 5906 5907 5909 5911 5912 5913 5914 5915 5917 5919
5783 5780 5778 5776 5774 5772 5770 5768 5766 5765 5763 5761 5760 5759 5759 5758 5758 5759 5759 5760 5761 5763 5765 5767 5769 5772 5774 5776 5778 5781 5784 5787 5792 5795 5799 5802 5806 5809 5813 5816 5819 5822 5826 5830 5834 5838 5843 5845 5845 5846 5849 5852 5855 5858 5861 5864 5868 5871 5873 5875 5876 5878 5880 5881 5883 5884 5886 5887 5888 5890 5890 5891 5893 5896 5898 5900 5902 5903 5905 5906 5908 5910 5911 5912 5913 5914 5915 5917
5781 5779 5777 5775 5773 5771 5769 5767 5765 5763 5761 5760 5758 5758 5757 5757 5757 5757 5758 5758 5760 5762 5764 5766 5768 5770 5772 5774 5777 5779 5782 5785 5789 5792 5796 5800 5803 5807 5810 5814 5817 5820 5824 5828 5832 5837 5840 5840 5842 5844 5847 5849 5852 5856 5860 5863 5867 5870 5872 5873 5875 5876 5878 5880 5882 5884 5885 5886 5888 5890 5890 5891 5893 5895 5897 5899 5901 5903 5904 5905 5907 5909 5911 5912 5913 5913 5915 5916
5780 5778 5776 5774 5772 5770 5768 5766 5764 5762 5760 5758 5757 5757 5756 5756 5755 5755 5756 5757 5759 5761 5763 5764 5766 5768 5771 5773 5775 5778 5781 5784 5786 5790 5793 5797 5801 5805 5808 5812 5815 5818 5822 5825 5830 5834 5836 5837 5839 5842 5845 5846 5850 5854 5858 5861 5865 5869 5870 5871 5873 5875 5877 5879 5881 5883 5885 5886 5887 5889 5890 5891 5892 5895 5897 5898 5900 5902 5903 5905 5906 5908 5912 5913 5913 5913 5914 5916
5779 5777 5775 5773 5771 5769 5767 5765 5763 5761 5759 5758 5757 5756 5755 5755 5754 5755 5755 5757 5758 5760 5762 5763 5765 5767 5770 5772 5774 5777 5779 5782 5785 5788 5790 5794 5798 5802 5806 5810 5813 5816 5820 5823 5827 5831 5833 5835 5838 5840 5843 5845 5848 5853 5857 5860 5864 5867 5868 5869 5872 5874 5875 5876 5878 5881 5883 5885 5886 5888 5890 5891 5893 5895 5896 5898 5899 5901 5903 5904 5905 5908 5911 5912 5912 5912 5913 5915
5778 5776 5774 5773 5771 5769 5766 5764 5762 5760 5759 5758 5757 5756 5755 5755 5754 5755 5756 5757 5758 5760 5761 5763 5765 5767 5769 5771 5773 5775 5777 5781 5784 5786 5789 5792 5795 5799 5803 5808 5811 5814 5817 5821 5826 5828 5830 5832 5836 5838 5841 5844 5848 5853 5856 5860 5863 5865 5866 5868 5871 5872 5872 5873 5875 5879 5881 5883 5885 5887 5888 5890 5892 5893 5895 5896 5898 5900 5902 5903 5905 5907 5909 5911 5912 5912 5912 5914
5777 5775 5774 5772 5770 5768 5766 5764 5762 5760 5759 5758 5757 5756 5755 5755 5755 5755 5756 5757 5759 5760 5762 5763 5765 5766 5768 5770 5772 5774 5776 5778 5781 5784 5787 5791 5794 5797 5801 5804 5808 5812 5815 5820 5824 5825 5826 5830 5833 5836 5839 5843 5848 5852 5855 5859 5861 5862 5864 5867 5869 5869 5870 5872 5875 5877 5879 5882 5884 5885 5886 5888 5889 5891 5893 5894 5897 5899 5901 5902 5904 5905 5907 5909 5910 5911 5912 5914
5777 5775 5773 5771 5770 5768 5766 5764 5762 5761 5760 5758 5757 5757 5756 5756 5757 5757 5758 5758 5759 5760 5762 5763 5765 5766 5767 5769 5771 5773 5775 5777 5779 5782 5785 5789 5792 5795 5798 5801 5805 5809 5813 5818 5821 5822 5824 5827 5830 5834 5838 5842 5846 5849 5852 5856 5859 5859 5862 5865 5867 5868 5869 5871 5874 5876 5879 5881 5882 5883 5885 5886 5888 5889 5891 5893 5895 5898 5899 5900 5901 5903 5904 5907 5909 5911 5912 5914
5776 5774 5773 5771 5769 5768 5766 5764 5763 5762 5761 5760 5759 5758 5758 5758 5758 5759 5759 5759 5760 5761 5762 5763 5764 5766 5767 5768 5770 5772 5774 5776 5778 5781 5783 5786 5790 5793 5797 5800 5803 5807 5812 5816 5819 5820 5823 5826 5829 5834 5838 5841 5844 5846 5849 5853 5855 5856 5859 5862 5865 5866 5867 5869 5872 5875 5878 5880 5881 5883 5884 5884 5886 5888 5889 5891 5893 5894 5896 5899 5901 5902 5904 5907 5910 5912 5912 5914
5775 5774 5773 5771 5770 5768 5766 5765 5764 5763 5762 5761 5760 5760 5760 5760 5760 5761 5761 5761 5762 5762 5763 5764 5765 5765 5766 5768 5770 5772 5774 5776 5778 5780 5782 5785 5788 5792 5795 5799 5802 5806 5811 5815 5817 5819 5822 5825 5829 5834 5837 5839 5840 5843 5846 5848 5850 5852 5855 5858 5862 5863 5865 5868 5870 5874 5876 5878 5880 5882 5883 5883 5885 5886 5888 5890 5891 5892 5894 5897 5899 5901 5904 5908 5910 5911 5912 5913
5775 5773 5772 5771 5770 5768 5767 5765 5764 5764 5763 5762 5762 5762 5761 5761 5762 5762 5763 5763 5763 5763 5764 5765 5765 5766 5767 5769 5771 5772 5774 5776 5778 5780 5782 5784 5788 5791 5794 5797 5801 5805 5809 5812 5814 5817 5820 5824 5828 5832 5834 5836 5838 5841 5843 5844 5846 5849 5852 5856 5859 5861 5863 5866 5869 5873 5875 5876 5878 5880 5881 5882 5883 5885 5887 5888 5889 5891 5893 5895 5898 5900 5903 5907 5909 5910 5911 5912
5774 5773 5772 5771 5770 5769 5767 5766 5765 5765 5764 5764 5764 5763 5763 5763 5763 5764 5764 5764 5764 5764 5764 5765 5766 5767 5768 5769 5771 5773 5774 5775 5777 5779 5782 5784 5787 5790 5793 5796 5799 5803 5806 5809 5812 5814 5818 5822 5826 5829 5831 5834 5837 5840 5842 5843 5846 5849 5852 5855 5858 5860 5863 5867 5870 5873 5874 5875 5877 5878 5879 5881 5883 5884 5886 5887 5889 5891 5892 5895 5898 5900 5903 5905 5907 5909 5911 5911
5773 5772 5771 5770 5769 5768 5767 5766 5766 5765 5765 5765 5765 5765 5765 5765 5765 5765 5765 5765 5764 5764 5765 5765 5766 5768 5769 5770 5771 5772 5773 5775 5777 5778 5781 5783 5785 5788 5791 5794 5797 5801 5804 5806 5809 5813 5816 5820 5824 5826 5829 5833 5836 5839 5840 5842 5845 5848 5851 5853 5856 5860 5864 5867 5870 5871 5872 5874 5875 5877 5879 5881 5882 5884 5885 5887 5888 5890 5892 5895 5897 5900 5902 5903 5906 5908 5910 5911
5772 5771 5771 5770 5769 5768 5767 5766 5766 5766 5765 5765 5765 5765 5765 5765 5766 5766 5766 5765 5765 5765 5765 5766 5767 5768 5769 5770 5772 5773 5773 5775 5776 5778 5779 5781 5783 5786 5789 5792 5796 5799 5801 5804 5807 5811 5815 5819 5821 5824 5827 5831 5834 5837 5838 5839 5842 5845 5847 5850 5855 5859 5862 5865 5867 5867 5868 5871 5873 5875 5878 5880 5881 5882 5884 5887 5888 5890 5892 5895 5896 5898 5900 5902 5904 5906 5908 5910
5771 5771 5770 5769 5768 5768 5767 5766 5766 5766 5766 5766 5765 5765 5765 5766 5766 5766 5767 5766 5766 5766 5766 5766 5767 5768 5770 5771 5772 5773 5774 5775 5776 5777 5779 5780 5782 5784 5787 5791 5794 5797 5799 5802 5806 5809 5813 5817 5820 5822 5825 5829 5831 5834 5836 5838 5841 5843 5845 5850 5854 5856 5859 5862 5863 5864 5866 5869 5871 5873 5876 5878 5879 5881 5884 5886 5888 5890 5892 5894 5895 5896 5897 5899 5900 5903 5906 5908
5771 5770 5769 5769 5768 5767 5767 5766 5766 5766 5766 5765 5765 5765 5765 5766 5766 5766 5767 5767 5767 5767 5767 5767 5768 5769 5770 5772 5773 5773 5774 5775 5776 5777 5778 5780 5781 5783 5786 5789 5792 5795 5798 5801 5804 5807 5811 5815 5817 5820 5823 5826 5829 5831 5833 5834 5838 5842 5846 5850 5851 5853 5856 5859 5860 5862 5864 5867 5870 5872 5875 5876 5877 5880 5883 5884 5887 5889 5890 5892 5892 5893 5894 5895 5897 5900 5904 5906
5770 5769 5769 5768 5768 5767 5767 5766 5766 5766 5765 5765 5765 5765 5765 5765 5766 5766 5766 5767 5767 5767 5768 5769 5770 5770 5771 5772 5773 5774 5775 5776 5777 5777 5778 5780 5781 5783 5785 5788 5790 5793 5796 5799 5802 5806 5809 5812 5815 5818 5821 5823 5826 5828 5830 5832 5836 5840 5844 5847 5848 5851 5856 5858 5859 5861 5863 5866 5869 5872 5873 5875 5877 5880 5881 5883 5885 5887 5889 5890 5890 5891 5892 5893 5896 5899 5902 5905
5769 5768 5768 5768 5767 5767 5766 5766 5766 5765 5765 5765 5765 5765 5764 5764 5765 5765 5766 5766 5767 5768 5768 5769 5770 5771 5772 5773 5773 5774 5775 5776 5777 5777 5779 5780 5781 5783 5785 5787 5789 5792 5794 5797 5801 5804 5807 5810 5813 5816 5819 5821 5824 5826 5828 5831 5834 5837 5839 5842 5845 5848 5853 5856 5858 5860 5862 5865 5869 5871 5872 5874 5877 5879 5880 5882 5884 5886 5888 5889 5889 5890 5891 5893 5895 5897 5899 5902
5768 5767 5767 5767 5766 5766 5766 5766 5765 5765 5765 5765 5764 5764 5764 5764 5764 5764 5765 5766 5767 5768 5768 5769 5770 5771 5772 5773 5773 5774 5775 5776 5776 5777 5779 5780 5781 5783 5785 5787 5788 5791 5793 5796 5799 5802 5805 5809 5812 5814 5817 5819 5822 5824 5827 5830 5833 5835 5838 5840 5843 5846 5850 5854 5856 5857 5860 5863 5867 5870 5872 5874 5876 5877 5879 5881 5883 5885 5887 5888 5889 5890 5891 5892 5894 5895 5897 5899
5767 5766 5766 5766 5765 5765 5765 5765 5765 5765 5765 5765 5764 5763 5763 5763 5763 5763 5764 5764 5766 5767 5768 5769 5770 5771 5772 5772 5773 5774 5775 5776 5776 5777 5778 5780 5781 5783 5784 5786 5788 5790 5793 5795 5798 5801 5804 5807 5810 5813 5815 5818 5820 5823 5826 5828 5830 5833 5836 5839 5842 5844 5847 5851 5854 5856 5859 5862 5865 5868 5870 5873 5874 5876 5877 5879 5882 5884 5886 5887 5889 5889 5890 5891 5892 5894 5896 5897
5766 5765 5764 5764 5764 5764 5765 5765 5765 5765 5765 5764 5764 5763 5763 5763 5763 5763 5763 5763 5765 5766 5767 5768 5769 5771 5771 5772 5773 5774 5775 5776 5776 5777 5778 5779 5781 5782 5784 5786 5788 5790 5792 5795 5797 5800 5803 5806 5808 5811 5814 5817 5819 5821 5824 5826 5828 5831 5834 5837 5840 5842 5845 5848 5852 5855 5858 5860 5863 5866 5869 5872 5874 5875 5876 5878 5881 5883 5884 5886 5888 5889 5890 5891 5892 5894 5895 5896
5765 5764 5763 5763 5763 5764 5764 5764 5764 5764 5764 5764 5764 5763 5763 5763 5762 5762 5762 5763 5764 5765 5766 5767 5768 5770 5771 5771 5772 5773 5774 5775 5776 5776 5778 5779 5781 5782 5783 5784 5787 5789 5791 5794 5796 5799 5802 5804 5807 5809 5812 5814 5816 5818 5821 5823 5826 5829 5832 5834 5837 5840 5843 5846 5849 5852 5855 5858 5861 5864 5867 5870 5872 5874 5876 5877 5880 5882 5882 5884 5887 5888 5890 5891 5892 5893 5894 5895
5764 5763 5762 5762 5763 5763 5763 5763 5763 5763 5763 5764 5764 5764 5763 5763 5762 5762 5762 5762 5763 5764 5765 5766 5767 5768 5769 5770 5771 5772 5773 5774 5775 5776 5777 5778 5780 5781 5782 5784 5786 5788 5790 5793 5795 5797 5800 5802 5805 5807 5810 5811 5813 5816 5818 5821 5824 5827 5830 5832 5835 5837 5840 5843 5846 5849 5852 5855 5858 5861 5864 5867 5870 5872 5875 5876 5879 5881 5881 5882 5885 5887 5889 5890 5890 5891 5893 5895
5762 5762 5761 5762 5762 5762 5762 5762 5762 5763 5763 5764 5764 5764 5763 5763 5763 5762 5762 5762 5763 5763 5764 5764 5765 5766 5767 5767 5769 5770 5771 5773 5774 5775 5776 5777 5778 5780 5782 5783 5785 5787 5789 5792 5794 5796 5798 5800 5803 5806 5808 5810 5813 5815 5817 5820 5823 5826 5828 5830 5833 5835 5838 5842 5844 5846 5849 5852 5855 5858 5862 5865 5868 5870 5873 5875 5877 5879 5880 5881 5884 5885 5887 5888 5889 5890 5892 5894
5761 5760 5760 5760 5761 5761 5761 5761 5762 5762 5763 5763 5763 5763 5763 5762 5763 5763 5762 5762 5762 5763 5763 5764 5764 5765 5765 5766 5767 5768 5769 5771 5772 5774 5775 5776 5777 5779 5781 5782 5784 5786 5788 5790 5792 5794 5797 5799 5801 5804 5806 5809 5812 5814 5817 5819 5822 5824 5827 5829 5831 5834 5837 5840 5842 5844 5846 5849 5852 5856 5859 5863 5866 5868 5870 5872 5875 5877 5878 5880 5882 5884 5885 5886 5887 5889 5890 5892
5760 5759 5759 5759 5760 5760 5760 5760 5761 5762 5763 5763 5763 5763 5762 5762 5763 5763 5762 5762 5762 5762 5762 5762 5763 5763 5764 5764 5765 5766 5767 5768 5770 5772 5773 5774 5775 5777 5779 5781 5783 5785 5787 5788 5790 5793 5795 5797 5799 5802 5804 5807 5810 5813 5815 5817 5820 5823 5826 5828 5830 5832 5835 5838 5840 5842 5844 5847 5850 5853 5856 5860 5863 5864 5867 5869 5871 5874 5876 5878 5880 5882 5883 5884 5885 5887 5889 5890
5758 5758 5757 5758 5758 5759 5759 5760 5760 5761 5762 5762 5762 5762 5762 5762 5763 5763 5762 5762 5762 5762 5761 5761 5762 5762 5763 5763 5764 5765 5765 5766 5768 5769 5771 5773 5774 5775 5777 5779 5781 5783 5785 5787 5789 5791 5793 5796 5797 5800 5802 5805 5808 5810 5813 5816 5818 5821 5824 5826 5828 5831 5833 5835 5838 5840 5842 5845 5848 5851 5853 5856 5859 5861 5864 5866 5868 5870 5873 5875 5877 5879 5881 5882 5883 5885 5886 5888
5757 5756 5756 5756 5757 5757 5758 5758 5759 5760 5761 5761 5762 5761 5762 5762 5762 5762 5762 5762 5762 5761 5761 5761 5761 5761 5762 5762 5763 5763 5764 5764 5765 5767 5769 5771 5773 5774 5776 5777 5779 5781 5783 5785 5787 5789 5791 5793 5796 5799 5802 5804 5806 5809 5811 5814 5816 5819 5821 5824 5826 5828 5830 5833 5835 5837 5840 5842 5845 5848 5851 5854 5856 5859 5861 5864 5866 5868 5870 5873 5875 5877 5878 5880 5881 5883 5884 5886
5756 5755 5755 5755 5755 5755 5756 5757 5758 5759 5760 5761 5761 5761 5761 5761 5761 5761 5761 5761 5761 5761 5761 5761 5760 5760 5761 5761 5762 5762 5763 5763 5764 5765 5767 5769 5771 5773 5774 5775 5777 5779 5781 5784 5785 5787 5789 5790 5793 5797 5800 5802 5804 5807 5809 5812 5814 5817 5819 5821 5823 5826 5827 5830 5833 5835 5837 5840 5842 5845 5848 5852 5854 5857 5859 5862 5864 5866 5868 5870 5872 5874 5875 5877 5878 5880 5882 5884
5754 5753 5753 5753 5753 5754 5755 5756 5757 5758 5759 5759 5760 5760 5760 5761 5761 5761 5761 5761 5761 5761 5761 5761 5760 5760 5760 5761 5761 5762 5762 5763 5763 5764 5765 5767 5769 5771 5772 5774 5776 5777 5780 5782 5783 5785 5787 5788 5790 5794 5797 5798 5801 5803 5806 5809 5812 5814 5816 5818 5820 5823 5825 5827 5830 5832 5834 5837 5839 5842 5845 5848 5851 5854 5857 5860 5862 5864 5866 5867 5869 5871 5873 5874 5876 5878 5880 5881